When you browse on this site, cookies collect data to enhance your experience and personalize the content and advertising you see.
Visit our Privacy Policy to learn more. By continuing to use the site, you agree to this use of cookies and data.
  • In Sweden
  • List of Countries
  • For 7 days
  • Water Temperature
  • Satellite Maps
  • Weather Map
  • Weather Widgets
  • user-avatar
    Login

    Hourly Weather Darwin

    Today, 16 June, Sunday

    Time Temperature Precipitation Wind Pressure Humidity
    00:00 +23°C° 0 mm 1 mps 760 mmHg 80%
    01:00 +22°C° 0 mm 1 mps 759 mmHg 80%
    02:00 +22°C° 0 mm 1 mps 759 mmHg 81%
    03:00 +21°C° 0 mm 2 mps 759 mmHg 80%
    04:00 +21°C° 0 mm 2 mps 759 mmHg 82%
    05:00 +21°C° 0 mm 2 mps 760 mmHg 84%
    06:00 +21°C° 0 mm 2 mps 760 mmHg 86%
    07:00 +24°C° 0 mm 2 mps 760 mmHg 78%
    08:00 +26°C° 0 mm 2 mps 760 mmHg 71%
    09:00 +28°C° 0 mm 3 mps 761 mmHg 63%
    10:00 +30°C° 0 mm 3 mps 760 mmHg 55%
    11:00 +33°C° 0 mm 3 mps 760 mmHg 46%
    12:00 +35°C° 0 mm 3 mps 759 mmHg 38%
    13:00 +35°C° 0 mm 3 mps 759 mmHg 36%
    14:00 +36°C° 0 mm 3 mps 758 mmHg 35%
    15:00 +36°C° 0 mm 3 mps 758 mmHg 34%
    16:00 +33°C° 0 mm 3 mps 758 mmHg 44%
    17:00 +30°C° 0 mm 2 mps 758 mmHg 54%
    18:00 +27°C° 0 mm 2 mps 758 mmHg 63%
    19:00 +26°C° 0 mm 2 mps 759 mmHg 68%
    20:00 +25°C° 0 mm 2 mps 759 mmHg 73%
    21:00 +24°C° 0 mm 2 mps 760 mmHg 77%
    22:00 +24°C° 0 mm 1 mps 760 mmHg 79%
    23:00 +24°C° 0 mm 1 mps 760 mmHg 81%

    Tomorrow, 17 June, Monday

    Time Temperature Precipitation Wind Pressure Humidity
    00:00 +21°C° 0 mm 0 mps 760 mmHg 82%
    01:00 +21°C° 0 mm 0 mps 760 mmHg 83%
    02:00 +21°C° 0 mm 0 mps 760 mmHg 83%
    03:00 +20°C° 0 mm 0 mps 760 mmHg 83%
    04:00 +22°C° 0 mm 1 mps 760 mmHg 83%
    05:00 +22°C° 0 mm 1 mps 760 mmHg 83%
    06:00 +21°C° 0 mm 2 mps 760 mmHg 83%
    07:00 +24°C° 0 mm 2 mps 761 mmHg 74%
    08:00 +26°C° 0 mm 3 mps 761 mmHg 64%
    09:00 +28°C° 0 mm 3 mps 762 mmHg 54%
    10:00 +30°C° 0 mm 4 mps 761 mmHg 47%
    11:00 +33°C° 0 mm 4 mps 761 mmHg 39%
    12:00 +35°C° 0 mm 4 mps 760 mmHg 32%
    13:00 +35°C° 0 mm 4 mps 759 mmHg 31%
    14:00 +36°C° 0 mm 4 mps 758 mmHg 31%
    15:00 +36°C° 0 mm 5 mps 758 mmHg 30%
    16:00 +34°C° 0 mm 4 mps 758 mmHg 38%
    17:00 +30°C° 0 mm 3 mps 758 mmHg 46%
    18:00 +28°C° 0 mm 2 mps 758 mmHg 54%
    19:00 +27°C° 0 mm 2 mps 759 mmHg 59%
    20:00 +26°C° 0 mm 2 mps 760 mmHg 63%
    21:00 +25°C° 0 mm 1 mps 760 mmHg 67%
    22:00 +25°C° 0 mm 1 mps 760 mmHg 65%
    23:00 +26°C° 0 mm 1 mps 760 mmHg 64%

    Day after tomorrow, 18 June, Tuesday

    Time Temperature Precipitation Wind Pressure Humidity
    00:00 +26°C° 0 mm 1 mps 760 mmHg 62%
    01:00 +25°C° 0 mm 2 mps 760 mmHg 62%
    02:00 +24°C° 0 mm 2 mps 760 mmHg 63%
    03:00 +22°C° 0 mm 3 mps 760 mmHg 64%
    04:00 +22°C° 0 mm 3 mps 760 mmHg 64%
    05:00 +21°C° 0 mm 4 mps 761 mmHg 64%
    06:00 +20°C° 0 mm 5 mps 761 mmHg 64%
    07:00 +22°C° 0 mm 5 mps 761 mmHg 59%
    08:00 +24°C° 0 mm 6 mps 761 mmHg 55%
    09:00 +28°C° 0 mm 6 mps 762 mmHg 51%
    10:00 +29°C° 0 mm 6 mps 761 mmHg 44%
    11:00 +32°C° 0 mm 6 mps 760 mmHg 37%
    12:00 +34°C° 0 mm 6 mps 760 mmHg 30%
    13:00 +34°C° 0 mm 5 mps 759 mmHg 29%
    14:00 +35°C° 0 mm 5 mps 759 mmHg 28%
    15:00 +35°C° 0 mm 4 mps 758 mmHg 28%
    16:00 +33°C° 0 mm 4 mps 758 mmHg 31%
    17:00 +32°C° 0 mm 4 mps 758 mmHg 34%
    18:00 +29°C° 0 mm 3 mps 759 mmHg 38%
    19:00 +27°C° 0 mm 3 mps 759 mmHg 39%
    20:00 +26°C° 0 mm 3 mps 760 mmHg 40%
    21:00 +25°C° 0 mm 3 mps 760 mmHg 41%
    22:00 +23°C° 0 mm 4 mps 760 mmHg 39%
    23:00 +23°C° 0 mm 6 mps 761 mmHg 37%

    19 June, Wednesday

    Time Temperature Precipitation Wind Pressure Humidity
    00:00 +23°C° 0 mm 7 mps 761 mmHg 35%
    01:00 +22°C° 0 mm 7 mps 761 mmHg 37%
    02:00 +21°C° 0 mm 7 mps 760 mmHg 38%
    03:00 +21°C° 0 mm 7 mps 760 mmHg 40%
    04:00 +20°C° 0 mm 7 mps 761 mmHg 40%
    05:00 +18°C° 0 mm 7 mps 761 mmHg 40%
    06:00 +17°C° 0 mm 7 mps 761 mmHg 40%
    07:00 +20°C° 0 mm 7 mps 761 mmHg 36%
    08:00 +21°C° 0 mm 7 mps 762 mmHg 33%
    09:00 +22°C° 0 mm 7 mps 762 mmHg 29%
    10:00 +24°C° 0 mm 7 mps 762 mmHg 25%
    11:00 +27°C° 0 mm 6 mps 761 mmHg 21%
    12:00 +29°C° 0 mm 5 mps 760 mmHg 18%
    13:00 +30°C° 0 mm 5 mps 759 mmHg 17%
    14:00 +32°C° 0 mm 4 mps 759 mmHg 16%
    15:00 +33°C° 0 mm 3 mps 758 mmHg 16%
    16:00 +29°C° 0 mm 3 mps 758 mmHg 19%
    17:00 +27°C° 0 mm 2 mps 758 mmHg 22%
    18:00 +25°C° 0 mm 2 mps 758 mmHg 25%
    19:00 +24°C° 0 mm 2 mps 759 mmHg 26%
    20:00 +22°C° 0 mm 3 mps 759 mmHg 27%
    21:00 +20°C° 0 mm 4 mps 760 mmHg 28%
    22:00 +20°C° 0 mm 4 mps 760 mmHg 29%
    23:00 +19°C° 0 mm 5 mps 760 mmHg 30%

    20 June, Thursday

    Time Temperature Precipitation Wind Pressure Humidity
    00:00 +19°C° 0 mm 6 mps 760 mmHg 31%
    01:00 +17°C° 0 mm 6 mps 760 mmHg 33%
    02:00 +16°C° 0 mm 6 mps 760 mmHg 35%
    03:00 +15°C° 0 mm 5 mps 760 mmHg 37%
    04:00 +14°C° 0 mm 5 mps 761 mmHg 39%
    05:00 +14°C° 0 mm 5 mps 761 mmHg 41%
    06:00 +13°C° 0 mm 5 mps 761 mmHg 44%
    07:00 +16°C° 0 mm 5 mps 761 mmHg 41%
    08:00 +19°C° 0 mm 6 mps 762 mmHg 39%
    09:00 +21°C° 0 mm 6 mps 762 mmHg 37%
    10:00 +23°C° 0 mm 5 mps 761 mmHg 33%
    11:00 +27°C° 0 mm 5 mps 761 mmHg 29%
    12:00 +29°C° 0 mm 4 mps 760 mmHg 25%
    13:00 +30°C° 0 mm 4 mps 760 mmHg 23%
    14:00 +31°C° 0 mm 3 mps 759 mmHg 22%
    15:00 +32°C° 0 mm 2 mps 758 mmHg 20%
    16:00 +29°C° 0 mm 2 mps 758 mmHg 28%
    17:00 +26°C° 0 mm 2 mps 759 mmHg 35%
    18:00 +24°C° 0 mm 2 mps 759 mmHg 42%
    19:00 +23°C° 0 mm 2 mps 759 mmHg 42%
    20:00 +21°C° 0 mm 2 mps 759 mmHg 42%
    21:00 +20°C° 0 mm 2 mps 760 mmHg 43%
    22:00 +20°C° 0 mm 3 mps 760 mmHg 40%
    23:00 +19°C° 0 mm 5 mps 760 mmHg 38%

    21 June, Friday

    Time Temperature Precipitation Wind Pressure Humidity
    00:00 +19°C° 0 mm 6 mps 760 mmHg 36%
    01:00 +19°C° 0 mm 6 mps 760 mmHg 38%
    02:00 +17°C° 0 mm 6 mps 760 mmHg 40%
    03:00 +16°C° 0 mm 6 mps 760 mmHg 42%
    04:00 +16°C° 0 mm 6 mps 760 mmHg 44%
    05:00 +15°C° 0 mm 6 mps 760 mmHg 46%
    06:00 +15°C° 0 mm 6 mps 761 mmHg 48%
    07:00 +17°C° 0 mm 6 mps 761 mmHg 47%
    08:00 +20°C° 0 mm 6 mps 761 mmHg 47%
    09:00 +21°C° 0 mm 7 mps 762 mmHg 46%
    10:00 +24°C° 0 mm 6 mps 761 mmHg 42%
    11:00 +27°C° 0 mm 5 mps 761 mmHg 38%
    12:00 +29°C° 0 mm 4 mps 760 mmHg 34%
    13:00 +30°C° 0 mm 4 mps 760 mmHg 31%
    14:00 +31°C° 0 mm 3 mps 759 mmHg 29%
    15:00 +32°C° 0 mm 2 mps 758 mmHg 26%
    16:00 +30°C° 0 mm 2 mps 758 mmHg 31%
    17:00 +28°C° 0 mm 1 mps 758 mmHg 36%
    18:00 +25°C° 0 mm 1 mps 759 mmHg 41%
    19:00 +24°C° 0 mm 1 mps 759 mmHg 40%
    20:00 +23°C° 0 mm 2 mps 759 mmHg 38%
    21:00 +21°C° 0 mm 3 mps 760 mmHg 37%
    22:00 +21°C° 0 mm 4 mps 760 mmHg 37%
    23:00 +20°C° 0 mm 6 mps 760 mmHg 37%
    Show more